CDT,Max TemperatureF,Mean TemperatureF,Min TemperatureF,Max Dew PointF,MeanDew PointF,Min DewpointF,Max Humidity, Mean Humidity, Min Humidity, Max Sea Level PressureIn, Mean Sea Level PressureIn, Min Sea Level PressureIn, Max VisibilityMiles, Mean VisibilityMiles, Min VisibilityMiles, Max Wind SpeedMPH, Mean Wind SpeedMPH, Max Gust SpeedMPH,PrecipitationIn, CloudCover, Events, WindDirDegrees
2013-7-1,73,60,46,55,48,41,87,66,46,30.20,30.18,30.12,10,10,4,10,3,,0.00,0,,5
2013-7-2,71,55,39,46,40,32,87,59,28,30.20,30.15,30.09,10,9,1,10,1,,0.00,0,,3
2013-7-3,78,60,42,54,48,37,87,61,36,30.09,30.03,29.97,10,10,10,12,2,18,0.00,0,,333
2013-7-4,82,71,60,57,55,52,77,56,37,29.99,29.94,29.89,10,10,10,15,8,21,0.00,1,,206
2013-7-5,84,75,66,57,56,52,68,50,33,29.93,29.89,29.84,10,10,10,18,12,28,0.00,1,,201
2013-7-6,87,78,71,70,62,57,78,59,43,29.89,29.88,29.85,10,10,7,17,12,26,0.00,1,,205
2013-7-7,80,68,55,68,62,52,88,75,61,29.93,29.89,29.84,10,9,2,18,8,28,0.00,4,Thunderstorm,153
2013-7-8,71,61,51,61,55,48,94,81,68,30.00,29.97,29.89,10,7,0,16,7,26,0.00,4,Thunderstorm,302
2013-7-9,78,66,55,70,60,52,94,83,69,30.01,29.85,29.74,10,9,2,13,3,20,0.00,4,,219
2013-7-10,71,63,55,57,53,50,88,71,46,30.01,29.93,29.82,10,10,8,20,10,25,0.00,1,,289
2013-7-11,80,65,50,57,52,46,88,60,34,30.11,30.05,30.00,10,9,1,13,2,,0.00,0,,219
2013-7-12,82,73,64,59,56,54,68,54,39,30.06,30.00,29.93,10,10,10,20,9,28,0.00,0,,192
2013-7-13,82,75,68,64,59,54,64,56,50,30.11,30.03,29.97,10,10,7,16,11,29,0.00,2,,196
2013-7-14,84,73,64,64,60,55,88,67,45,30.22,30.16,30.11,10,10,2,13,6,21,0.00,3,,211
2013-7-15,86,73,60,66,62,55,88,68,40,30.26,30.23,30.19,10,9,1,13,3,16,0.00,1,,164
2013-7-16,89,78,68,72,68,63,83,66,49,30.21,30.17,30.13,10,10,3,16,8,30,0.00,1,,221
2013-7-17,89,79,69,70,66,64,83,64,49,30.21,30.16,30.10,10,10,10,18,8,24,0.00,1,,242
2013-7-18,91,78,66,72,67,63,88,68,49,30.10,29.88,29.66,10,10,5,23,8,31,0.00,1,Thunderstorm,214
2013-7-19,82,72,62,70,63,54,94,71,47,29.80,29.71,29.61,10,10,2,23,12,31,0.00,3,Thunderstorm,272
2013-7-20,64,56,48,55,47,37,93,64,39,30.03,29.95,29.80,10,10,10,9,5,,0.00,0,,18
2013-7-21,71,56,42,57,50,39,93,72,52,30.03,29.96,29.86,10,10,8,9,3,,0.00,0,,79
2013-7-22,80,70,59,68,59,50,88,74,57,29.86,29.71,29.60,10,10,10,18,10,31,0.00,2,Thunderstorm,226
2013-7-23,66,56,48,52,47,45,93,67,49,30.01,29.93,29.76,10,10,4,13,6,21,0.00,2,,341
2013-7-24,69,56,44,55,49,41,93,71,49,30.06,30.01,29.96,10,10,3,12,2,,0.00,3,,232
2013-7-25,78,67,57,61,56,50,94,71,50,29.96,29.90,29.84,10,10,3,14,8,20,0.00,3,Thunderstorm,232
2013-7-26,60,53,46,55,49,43,94,90,82,30.03,29.92,29.85,10,4,0,15,5,22,0.00,7,,353
2013-7-27,53,50,46,48,45,43,93,85,72,29.98,29.87,29.83,10,7,2,13,6,17,0.00,8,,319
2013-7-28,55,50,46,52,48,45,94,88,77,30.03,29.92,29.85,10,7,1,14,5,18,0.00,7,,314
2013-7-29,71,56,41,59,49,37,93,71,43,30.11,30.08,30.02,10,9,1,8,2,,0.00,1,,318
2013-7-30,69,62,55,59,55,52,88,73,60,30.13,30.08,30.04,10,10,9,12,5,20,0.00,7,,212
2013-7-31,73,63,53,61,55,48,94,74,50,30.03,29.96,29.91,10,10,5,14,6,20,0.00,1,Thunderstorm,248